| time (UTC) | temp F | wind direction | speed MPH | gust MPH | rain 1hr in | rain 24hr in | rain mn in | humidity % | barometer mb |
| 20260505124605 | 54 | 247 | 1.0 | 6.0 | 0.00 | 0.00 | 0.00 | 85 | 1016.6 |
| 20260505123027 | 54 | 249 | 1.0 | 7.0 | 0.00 | 0.00 | 0.00 | 84 | 1016.6 |
| 20260505121533 | 55 | 241 | 1.0 | 7.0 | 0.00 | 0.00 | 0.00 | 83 | 1016.5 |
| 20260505120030 | 55 | 232 | 1.0 | 6.0 | 0.00 | 0.00 | 0.00 | 83 | 1016.4 |
| 20260505113034 | 55 | 235 | 1.0 | 5.0 | 0.00 | 0.00 | 0.00 | 83 | 1016.4 |
| 20260505111531 | 55 | 236 | 1.0 | 7.0 | 0.00 | 0.00 | 0.00 | 82 | 1016.3 |
| 20260505101529 | 56 | 240 | 1.0 | 6.0 | 0.00 | 0.00 | 0.00 | 82 | 1015.9 |
| 20260505094531 | 56 | 239 | 1.0 | 6.0 | 0.00 | 0.00 | 0.00 | 81 | 1015.6 |
| 20260505093030 | 57 | 223 | 1.0 | 5.0 | 0.00 | 0.00 | 0.00 | 80 | 1015.5 |
| 20260505091608 | 58 | 241 | 1.0 | 7.0 | 0.00 | 0.00 | 0.00 | 78 | 1015.4 |
| 20260505084532 | 59 | 238 | 1.0 | 7.0 | 0.00 | 0.00 | 0.00 | 77 | 1015.2 |
| 20260505083030 | 59 | 246 | 1.0 | 6.0 | 0.00 | 0.00 | 0.00 | 77 | 1015.2 |
| 20260505081530 | 60 | 240 | 1.0 | 6.0 | 0.00 | 0.00 | 0.00 | 77 | 1015.1 |
| 20260505080027 | 60 | 239 | 1.0 | 5.0 | 0.00 | 0.00 | 0.00 | 77 | 1015.0 |
| 20260505074530 | 61 | 250 | 0.0 | 5.0 | 0.00 | 0.00 | 0.00 | 77 | 1015.0 |
| 20260505073027 | 61 | 250 | 0.0 | 6.0 | 0.00 | 0.00 | 0.00 | 77 | 1014.8 |
| 20260505071532 | 62 | 248 | 1.0 | 5.0 | 0.00 | 0.00 | 0.00 | 75 | 1014.7 |
| 20260505070030 | 62 | 257 | 0.0 | 4.0 | 0.00 | 0.00 | 0.00 | 73 | 1014.7 |
| 20260505064533 | 63 | 237 | 1.0 | 6.0 | 0.00 | 0.00 | 0.00 | 72 | 1014.5 |
| 20260505061532 | 64 | 261 | 0.0 | 5.0 | 0.00 | 0.00 | 0.00 | 69 | 1014.4 |
| 20260505060031 | 64 | 245 | 0.0 | 4.0 | 0.00 | 0.00 | 0.00 | 69 | 1014.4 |
| 20260505054532 | 64 | 226 | 1.0 | 5.0 | 0.00 | 0.00 | 0.00 | 68 | 1014.3 |
| 20260505053033 | 65 | 243 | 0.0 | 5.0 | 0.00 | 0.00 | 0.00 | 66 | 1014.2 |
| 20260505041530 | 67 | 230 | 1.0 | 8.0 | 0.00 | 0.00 | 0.00 | 59 | 1013.4 |
| 20260505040044 | 67 | 250 | 0.0 | 4.0 | 0.00 | 0.00 | 0.00 | 58 | 1013.2 |
| 20260505034528 | 67 | 229 | 1.0 | 5.0 | 0.00 | 0.00 | 0.00 | 57 | 1012.9 |
| 20260505033031 | 68 | 259 | 0.0 | 8.0 | 0.00 | 0.00 | 0.00 | 57 | 1012.7 |
| 20260505031528 | 68 | 227 | 1.0 | 6.0 | 0.00 | 0.00 | 0.00 | 56 | 1012.6 |
| 20260505023031 | 69 | 249 | 1.0 | 7.0 | 0.00 | 0.00 | 0.00 | 56 | 1012.1 |
| 20260505021531 | 70 | 252 | 1.0 | 7.0 | 0.00 | 0.00 | 0.00 | 55 | 1011.9 |
| 20260505020030 | 71 | 256 | 1.0 | 7.0 | 0.00 | 0.00 | 0.00 | 54 | 1011.8 |
| 20260505014607 | 72 | 267 | 1.0 | 10.0 | 0.00 | 0.00 | 0.00 | 53 | 1011.7 |
| 20260505013147 | 72 | 265 | 0.0 | 7.0 | 0.00 | 0.00 | 0.00 | 53 | 1011.7 |
| 20260505011608 | 72 | 267 | 1.0 | 9.0 | 0.00 | 0.00 | 0.00 | 53 | 1011.7 |
| 20260505010144 | 73 | 272 | 0.0 | 4.0 | 0.00 | 0.00 | 0.00 | 52 | 1011.8 |
| 20260505004529 | 74 | 261 | 0.0 | 7.0 | 0.00 | 0.00 | 0.00 | 50 | 1011.9 |
| 20260505003031 | 74 | 264 | 1.0 | 6.0 | 0.00 | 0.00 | 0.00 | 49 | 1011.9 |
| 20260505001531 | 75 | 276 | 0.0 | 6.0 | 0.00 | 0.00 | 0.00 | 48 | 1011.8 |
| 20260505000032 | 76 | 272 | 0.0 | 7.0 | 0.00 | 0.00 | 0.00 | 48 | 1011.9 |
| 20260504234528 | 76 | 273 | 0.0 | 5.0 | 0.00 | 0.00 | 0.00 | 47 | 1011.7 |
| 20260504233031 | 76 | 269 | 1.0 | 6.0 | 0.00 | 0.00 | 0.00 | 47 | 1011.6 |
| 20260504230031 | 76 | 275 | 0.0 | 6.0 | 0.00 | 0.00 | 0.00 | 47 | 1011.9 |
| 20260504224531 | 76 | 277 | 0.0 | 7.0 | 0.00 | 0.00 | 0.00 | 48 | 1012.0 |
| 20260504220030 | 75 | 278 | 0.0 | 10.0 | 0.00 | 0.00 | 0.00 | 48 | 1012.3 |
| 20260504213031 | 75 | 275 | 1.0 | 7.0 | 0.00 | 0.00 | 0.00 | 48 | 1012.6 |
| 20260504211533 | 75 | 271 | 1.0 | 9.0 | 0.00 | 0.00 | 0.00 | 48 | 1012.6 |
| 20260504210107 | 75 | 268 | 1.0 | 9.0 | 0.00 | 0.00 | 0.00 | 48 | 1012.7 |
| 20260504204531 | 75 | 278 | 0.0 | 6.0 | 0.00 | 0.00 | 0.00 | 47 | 1012.8 |
| 20260504203105 | 76 | 276 | 0.0 | 5.0 | 0.00 | 0.00 | 0.00 | 46 | 1012.9 |
| 20260504201530 | 76 | 282 | 0.0 | 7.0 | 0.00 | 0.00 | 0.00 | 46 | 1012.9 |
| 20260504200032 | 75 | 272 | 0.0 | 6.0 | 0.00 | 0.00 | 0.00 | 47 | 1013.1 |
| 20260504194530 | 75 | 277 | 1.0 | 6.0 | 0.00 | 0.00 | 0.00 | 49 | 1013.2 |
| 20260504193032 | 74 | 274 | 1.0 | 7.0 | 0.00 | 0.00 | 0.00 | 50 | 1013.2 |
| 20260504191531 | 73 | 276 | 1.0 | 8.0 | 0.00 | 0.00 | 0.00 | 51 | 1013.4 |
| 20260504190107 | 72 | 268 | 1.0 | 9.0 | 0.00 | 0.00 | 0.00 | 52 | 1013.4 |
| 20260504184532 | 72 | 269 | 0.0 | 7.0 | 0.00 | 0.00 | 0.00 | 53 | 1013.5 |
| 20260504183031 | 72 | 271 | 1.0 | 4.0 | 0.00 | 0.00 | 0.00 | 53 | 1013.6 |
| 20260504180030 | 71 | 259 | 0.0 | 5.0 | 0.00 | 0.00 | 0.00 | 54 | 1014.0 |
| 20260504174530 | 72 | 252 | 1.0 | 12.0 | 0.00 | 0.00 | 0.00 | 54 | 1014.0 |
| 20260504173144 | 71 | 251 | 0.0 | 5.0 | 0.00 | 0.00 | 0.00 | 56 | 1014.0 |
| 20260504171529 | 69 | 249 | 0.0 | 4.0 | 0.00 | 0.00 | 0.00 | 57 | 1014.1 |
| 20260504170108 | 69 | 259 | 0.0 | 5.0 | 0.00 | 0.00 | 0.00 | 57 | 1014.1 |